Location: Unspecified
(0.0000°N, 0.0000°E)
Time: 18:45:14
(UTC+00:00)

Courier 1B Rocket - Visible Passes

Search period start: 31 July 2021 00:00
Search period end: 10 August 2021 00:00
Orbit: 920 x 1202 km, 28.2° (Epoch: 31 July)

Date Brightness Start Highest point End Pass type
(mag) Time Alt. Az. Time Alt. Az. Time Alt. Az.
31 Jul 6.3 19:28:40 10° SSW 19:35:00 26° SSE 19:35:37 26° SSE visible
31 Jul 7.6 21:21:22 10° WSW 21:22:02 13° SW 21:22:02 13° SW visible
01 Aug 6.8 18:28:09 10° SSW 18:33:23 19° SSE 18:38:34 10° ESE visible
01 Aug 6.0 20:20:08 10° SW 20:25:27 42° SSW 20:25:27 42° SSW visible
02 Aug 5.9 19:19:09 10° SW 19:26:21 39° SSE 19:28:57 31° ESE visible
02 Aug 7.1 21:12:34 10° WSW 21:15:23 24° WSW 21:15:23 24° WSW visible
03 Aug 5.2 20:11:05 10° WSW 20:18:59 83° SSE 20:18:59 83° SSE visible
04 Aug 5.5 19:09:54 10° SW 19:17:36 57° SSE 19:22:39 22° E visible
04 Aug 6.6 21:04:04 10° W 21:09:06 36° WNW 21:09:06 36° WNW visible
05 Aug 7.5 04:50:51 10° N 04:52:44 11° NNE 04:54:36 10° NE visible
05 Aug 5.6 20:02:19 10° WSW 20:10:08 68° NNW 20:12:49 43° NE visible
05 Aug 7.9 21:58:35 10° WNW 21:59:15 12° WNW 21:59:15 12° WNW visible
06 Aug 6.9 05:40:26 10° NNW 05:45:37 27° NNE 05:50:46 10° E visible
06 Aug 5.4 19:00:54 10° WSW 19:08:46 84° SSE 19:16:32 10° ENE visible
06 Aug 6.7 20:55:59 10° W 21:02:44 32° NNW 21:02:58 32° NNW visible
07 Aug 7.3 04:40:13 10° NNW 04:44:24 18° NNE 04:48:30 10° ENE visible
07 Aug 6.2 19:53:52 10° W 20:01:19 46° NNW 20:06:39 19° NE visible
07 Aug 7.8 21:51:34 10° NW 21:53:06 13° NW 21:53:06 13° NW visible
08 Aug 7.5 03:40:29 10° N 03:43:00 12° NNE 03:45:28 10° NE visible
08 Aug 6.1 05:31:05 10° NW 05:37:04 42° NNE 05:42:55 10° E visible
08 Aug 5.8 18:52:11 10° WSW 18:59:55 67° NNW 19:07:40 10° NE visible
08 Aug 7.2 20:48:21 10° WNW 20:54:06 22° NNW 20:56:41 19° N visible
09 Aug 6.7 04:30:29 10° NNW 04:35:56 28° NNE 04:41:12 10° E visible
09 Aug 6.9 19:45:50 10° W 19:52:35 31° NNW 19:59:17 10° NNE visible
09 Aug 7.9 21:45:58 10° NNW 21:46:35 10° NNW 21:46:35 10° NNW visible
